Wind_Speed
56 56 56 56 56 57 57 57 57 57 57 58 58 59 59 59 60 62 62 63 63 64 64 63 64 64 64 65 65 66 66 66 66 66 66 66 65 65
56 56 56 56 56 57 58 58 58 58 57 57 58 59 60 60 61 62 63 63 63 63 64 64 64 65 65 66 66 66 66 67 67 67 67 67 67 67
55 55 56 57 57 57 57 57 57 58 58 58 59 60 60 60 61 62 63 63 63 64 64 64 64 64 65 64 65 65 66 66 66 67 67 68 68 68
54 54 55 56 56 56 56 56 57 58 58 58 58 60 60 61 61 61 62 63 63 63 63 63 63 64 64 64 64 64 65 66 66 67 67 67 67 68
53 54 54 54 54 54 55 56 56 57 58 58 57 58 59 60 60 60 61 62 62 63 62 62 63 63 63 64 63 64 65 65 65 66 66 67 67 68
52 52 53 53 53 54 54 54 55 55 55 56 56 57 58 59 60 60 60 61 61 62 61 61 62 63 63 64 64 63 63 64 64 65 65 66 66 67
50 50 51 51 52 52 53 53 53 54 54 55 55 56 56 56 57 58 58 58 59 60 61 61 62 63 63 64 64 63 62 63 63 64 64 65 66 66
49 49 50 50 51 51 51 52 52 53 53 53 54 54 53 53 54 55 55 55 56 57 59 59 60 61 61 62 63 63 62 62 63 63 63 63 65 65
48 48 49 49 50 50 50 50 50 50 50 50 50 50 50 51 52 52 52 52 53 54 56 56 57 58 58 59 60 60 61 61 61 62 62 62 63 63
47 47 47 47 47 47 47 47 47 47 47 48 48 48 48 49 50 50 50 50 50 51 53 53 54 54 55 56 57 58 59 60 61 61 61 61 62 62
44 45 44 44 44 44 44 45 45 46 46 46 47 47 47 47 47 47 47 48 47 48 50 51 52 52 52 53 54 56 57 58 59 59 59 59 60 61
41 41 41 41 42 42 43 43 44 44 44 44 44 44 44 44 44 45 45 45 46 46 47 48 49 50 50 51 52 53 54 55 56 56 57 57 58 59
39 39 40 40 40 40 41 41 41 41 42 42 42 42 42 42 43 43 43 44 44 45 45 46 46 47 48 48 49 50 51 52 52 53 54 54 55 56
39 39 39 40 40 40 40 40 40 40 40 40 39 40 40 41 41 42 42 43 43 43 43 44 44 45 45 45 45 46 47 48 49 50 51 51 52 53
38 38 38 38 38 38 38 38 38 38 38 38 38 38 38 38 39 40 40 41 40 40 41 42 42 42 42 43 43 43 44 45 46 47 48 49 50 51
38 38 38 38 38 37 37 37 37 37 37 36 36 36 37 37 37 37 38 38 38 37 38 39 39 39 39 40 40 39 40 42 43 44 46 47 47 48
37 36 36 36 36 35 35 35 35 35 35 35 35 35 36 36 36 36 36 36 36 36 36 37 37 37 37 37 37 38 38 39 40 41 42 43 43 43
36 36 36 35 35 35 35 35 35 35 35 35 35 35 35 35 35 35 36 36 36 36 36 36 36 36 36 36 37 37 37 38 39 40 41 40 40 41
35 35 35 34 34 35 35 35 36 35 35 35 35 35 35 35 35 36 36 36 35 35 35 36 36 35 35 34 35 37 38 38 39 39 39 39 38 38
35 35 35 35 35 35 34 34 35 35 35 35 35 35 34 35 35 35 35 35 35 35 34 35 35 36 35 36 36 36 38 39 38 38 38 38 37 37
35 34 35 35 35 35 35 35 34 34 35 35 35 35 35 34 34 34 34 34 34 34 34 34 35 35 36 36 37 36 37 38 38 38 37 37 36 35
34 34 34 34 34 34 34 34 34 34 34 34 35 34 34 34 33 33 33 33 33 34 34 34 35 36 36 37 37 36 36 36 37 37 36 36 36 35
33 33 33 33 34 34 34 34 33 33 33 33 33 33 33 33 33 33 33 33 33 34 34 35 36 36 37 37 36 36 36 35 35 35 34 35 35 35
Wind_Direction
267 268 268 267 267 267 266 266 266 265 263 264 264 264 264 265 265 265 265 265 265 265 266 266 266 265 264 264 264 263 263 263 263 263 262 261 261 260
267 267 267 267 267 268 267 267 266 265 265 265 265 265 266 266 267 267 266 265 266 266 266 266 265 265 264 264 264 263 263 263 263 262 261 261 260 260
268 268 268 267 267 268 267 267 267 266 266 266 267 266 266 267 267 267 266 266 266 266 266 266 266 266 265 266 265 264 264 263 263 262 261 261 261 261
267 267 268 268 268 267 266 266 267 267 267 268 268 268 267 267 268 267 266 266 267 266 266 266 265 266 266 266 266 265 265 264 263 262 262 262 262 261
266 267 267 268 267 267 267 267 267 267 268 268 268 269 269 269 268 267 267 267 267 266 266 266 266 266 266 266 266 266 265 265 264 263 263 262 262 262
267 267 267 267 267 267 268 268 268 268 269 269 270 270 270 270 269 268 268 267 266 266 266 266 266 266 266 266 266 266 265 265 264 264 264 263 263 263
267 267 267 267 268 269 269 269 270 269 270 270 270 270 270 270 270 269 269 267 266 266 266 266 266 266 266 266 266 266 266 266 266 265 264 264 263 263
268 268 268 269 270 270 270 270 270 270 271 271 271 271 271 271 271 270 269 269 268 267 267 267 267 266 266 266 266 266 267 266 266 265 265 264 264 264
268 269 270 271 270 271 270 270 270 270 271 271 271 272 272 271 271 271 270 270 269 268 267 267 267 267 266 266 266 266 266 266 266 265 265 265 265 264
269 270 271 271 270 269 269 269 269 270 270 271 272 272 272 272 272 271 271 271 271 270 270 269 268 267 267 267 267 266 266 266 266 266 265 266 265 265
270 271 271 271 270 269 268 269 270 270 270 271 272 273 273 272 272 271 271 272 272 272 271 270 269 267 267 268 267 267 267 267 266 266 266 266 266 265
270 270 270 270 270 269 269 270 270 271 271 271 272 272 273 273 272 272 272 273 273 272 272 271 269 267 266 267 267 267 268 268 268 267 267 267 267 266
269 270 270 270 270 270 271 272 272 272 271 271 271 272 273 273 273 273 273 273 273 273 273 272 271 270 269 268 269 269 269 269 268 268 268 268 268 267
268 269 270 270 270 271 272 273 273 273 273 272 272 272 272 272 272 273 273 274 274 274 274 274 273 273 272 271 271 270 271 271 271 269 269 269 269 268
268 269 269 269 270 272 273 273 273 273 273 272 272 272 273 273 273 274 274 274 275 275 275 275 275 274 274 274 273 273 272 272 272 271 271 270 271 270
268 268 268 268 269 272 273 274 273 273 273 273 273 273 273 274 274 274 274 275 276 276 276 276 275 275 275 275 276 275 275 275 273 272 271 271 271 271
266 267 267 268 269 270 272 273 273 273 273 273 274 274 273 273 274 275 274 275 276 276 276 276 276 276 277 278 278 277 277 277 276 275 274 273 272 271
266 267 268 268 269 269 271 272 273 273 273 272 273 273 273 273 273 274 274 275 275 275 276 276 276 276 277 278 279 279 279 280 279 278 277 274 273 271
266 267 269 269 270 270 271 272 272 272 272 272 273 273 273 272 272 272 273 274 273 274 275 276 276 277 277 278 279 280 281 281 281 280 278 276 275 273
266 268 269 270 270 270 271 272 272 273 272 272 273 273 273 273 273 273 273 273 273 273 274 276 277 278 279 279 280 281 282 283 282 280 278 276 275 274
266 267 268 269 270 270 271 272 272 272 272 271 272 272 272 272 273 273 274 274 274 274 274 276 277 279 281 281 282 282 282 283 282 281 278 276 275 274
267 268 269 269 270 271 271 271 271 271 271 272 272 272 272 272 273 273 273 274 274 274 275 276 278 280 282 283 284 284 283 282 281 281 280 278 277 275
267 268 269 270 270 270 270 270 271 271 271 272 272 272 272 272 273 273 274 274 275 276 277 277 279 280 282 283 283 283 284 283 281 280 279 279 278 278
Height
5612 5611 5611 5610 5610 5610 5610 5611 5612 5613 5615 5615 5615 5616 5616 5617 5618 5620 5621 5622 5624 5625 5626 5627 5629 5630 5631 5632 5634 5635 5637 5639 5641 5643 5645 5647 5650 5652
5596 5596 5595 5595 5595 5594 5595 5595 5595 5596 5599 5600 5599 5599 5599 5600 5601 5602 5603 5604 5606 5607 5608 5609 5610 5611 5612 5613 5614 5616 5618 5620 5621 5623 5625 5627 5630 5632
5581 5580 5580 5580 5580 5579 5579 5579 5579 5580 5581 5583 5582 5582 5582 5583 5583 5584 5585 5586 5587 5588 5589 5590 5591 5592 5593 5594 5595 5597 5598 5600 5602 5604 5605 5608 5610 5613
5566 5565 5565 5565 5564 5564 5564 5563 5564 5564 5564 5566 5566 5565 5565 5566 5566 5567 5567 5568 5569 5570 5571 5571 5572 5573 5574 5575 5576 5578 5579 5581 5582 5584 5587 5589 5591 5591
5551 5551 5550 5550 5549 5549 5548 5548 5548 5548 5548 5549 5550 5549 5549 5549 5549 5550 5550 5550 5550 5551 5552 5553 5554 5555 5556 5557 5557 5559 5560 5562 5564 5565 5566 5568 5570 5571
5536 5536 5535 5535 5534 5534 5533 5533 5533 5533 5533 5533 5534 5534 5533 5532 5532 5533 5533 5533 5533 5533 5534 5535 5536 5537 5538 5539 5540 5541 5542 5542 5544 5545 5547 5548 5550 5551
5522 5522 5521 5520 5520 5519 5519 5519 5518 5518 5518 5518 5518 5518 5517 5517 5516 5516 5516 5516 5516 5516 5517 5518 5518 5520 5519 5520 5521 5522 5523 5523 5525 5526 5527 5529 5530 5531
5508 5508 5507 5507 5506 5505 5504 5504 5503 5503 5502 5502 5502 5502 5501 5501 5500 5499 5499 5500 5501 5501 5499 5500 5500 5501 5502 5502 5503 5503 5504 5505 5506 5507 5508 5509 5510 5512
5495 5494 5494 5493 5492 5491 5490 5489 5489 5488 5487 5487 5487 5486 5486 5486 5485 5485 5484 5483 5484 5484 5482 5484 5483 5484 5484 5484 5485 5486 5486 5486 5487 5488 5489 5490 5491 5492
5482 5481 5480 5479 5478 5477 5476 5476 5475 5475 5474 5473 5473 5472 5471 5470 5470 5470 5469 5469 5468 5467 5467 5468 5468 5467 5468 5468 5468 5468 5468 5468 5469 5469 5470 5471 5471 5473
5469 5468 5467 5466 5465 5464 5464 5464 5463 5462 5460 5459 5458 5457 5457 5456 5455 5455 5455 5454 5454 5454 5452 5452 5452 5452 5452 5452 5452 5451 5450 5451 5451 5451 5452 5452 5453 5454
5456 5455 5455 5454 5452 5451 5451 5450 5450 5449 5448 5446 5445 5444 5444 5443 5442 5442 5441 5440 5440 5440 5438 5437 5437 5436 5438 5438 5437 5435 5434 5434 5434 5434 5434 5434 5434 5434
5444 5444 5443 5442 5441 5439 5439 5438 5438 5436 5435 5434 5433 5432 5431 5431 5430 5429 5428 5427 5427 5426 5425 5424 5423 5422 5422 5424 5423 5421 5419 5419 5418 5418 5418 5417 5417 5416
5433 5432 5431 5430 5429 5428 5427 5427 5426 5424 5423 5423 5422 5421 5420 5419 5418 5417 5416 5415 5414 5413 5412 5411 5410 5409 5408 5409 5409 5408 5406 5404 5403 5403 5403 5402 5401 5400
5421 5420 5419 5418 5418 5417 5416 5415 5414 5413 5412 5411 5411 5410 5409 5408 5406 5405 5404 5403 5402 5401 5400 5398 5397 5397 5396 5396 5396 5395 5393 5392 5390 5389 5388 5387 5387 5386
5409 5408 5408 5407 5407 5406 5405 5404 5403 5402 5401 5400 5399 5399 5398 5397 5395 5394 5393 5392 5391 5390 5389 5387 5386 5385 5384 5383 5382 5381 5380 5378 5377 5375 5374 5374 5373 5372
5397 5397 5397 5396 5396 5395 5394 5393 5392 5391 5390 5390 5389 5388 5387 5386 5385 5383 5382 5381 5381 5380 5378 5377 5375 5374 5373 5372 5371 5370 5368 5366 5364 5362 5360 5360 5360 5358
5386 5386 5386 5386 5385 5384 5384 5383 5382 5381 5380 5379 5378 5377 5376 5375 5374 5373 5372 5371 5370 5369 5368 5367 5365 5364 5363 5362 5360 5358 5356 5354 5352 5350 5348 5347 5347 5347
5375 5375 5375 5375 5374 5374 5373 5372 5371 5370 5369 5369 5368 5367 5366 5365 5364 5363 5362 5361 5360 5359 5358 5356 5354 5353 5353 5352 5351 5347 5345 5343 5340 5339 5336 5335 5334 5334
5364 5365 5364 5364 5363 5363 5362 5361 5360 5359 5359 5358 5357 5356 5355 5354 5354 5353 5351 5350 5349 5349 5348 5346 5344 5343 5342 5341 5340 5338 5333 5330 5328 5327 5325 5323 5323 5322
5353 5353 5353 5353 5352 5352 5351 5350 5350 5349 5348 5347 5347 5346 5345 5344 5343 5342 5341 5340 5339 5339 5338 5336 5334 5332 5330 5329 5328 5327 5324 5320 5316 5314 5313 5311 5311 5310
5342 5342 5342 5342 5341 5341 5340 5339 5339 5338 5338 5337 5336 5335 5335 5334 5333 5332 5331 5331 5329 5328 5327 5326 5324 5322 5320 5318 5316 5314 5313 5310 5307 5303 5301 5300 5298 5298
5331 5331 5331 5331 5330 5330 5329 5329 5328 5328 5327 5326 5326 5325 5324 5323 5323 5322 5321 5320 5319 5318 5316 5315 5313 5311 5309 5307 5305 5303 5301 5298 5296 5294 5293 5290 5288 5287